KC7MGR Weather Reports


time (UTC)temp
C
wind
direction
speed
KPH
gust
KPH
rain 1hr
cm
rain 24hr
cm
rain mn
cm
humidity
%
barometer
mb
20260505140329 9 71 0.0 0.0 0.00 0.00 0.00 52 1012.2
20260505124824 7 80 0.0 0.0 0.00 0.00 0.00 58 1011.7
20260505124323 7 92 0.0 0.0 0.00 0.00 0.00 60 1011.7
20260505123824 7 101 0.0 0.0 0.00 0.00 0.00 61 1011.7
20260505123324 7 87 0.0 0.0 0.00 0.00 0.00 61 1011.6
20260505122825 7 85 0.0 0.0 0.00 0.00 0.00 60 1011.7
20260505122345 7 80 0.0 0.0 0.00 0.00 0.00 61 1011.7
20260505121823 7 84 0.0 0.0 0.00 0.00 0.00 60 1011.5
20260505121344 7 88 0.0 0.0 0.00 0.00 0.00 61 1011.5
20260505120842 8 96 0.0 0.0 0.00 0.00 0.00 59 1011.5
20260505120319 7 87 0.0 0.0 0.00 0.00 0.00 60 1011.4
20260505115817 7 89 0.0 0.0 0.00 0.00 0.00 61 1011.4
20260505115315 7 90 0.0 0.0 0.00 0.00 0.00 60 1011.3
20260505114834 8 91 0.0 0.0 0.00 0.00 0.00 60 1011.3
20260505114332 7 86 0.0 0.0 0.00 0.00 0.00 61 1011.4
20260505113830 7 93 0.0 0.0 0.00 0.00 0.00 61 1011.3
20260505113328 7 95 0.0 0.0 0.00 0.00 0.00 62 1011.4
20260505112848 7 96 0.0 0.0 0.00 0.00 0.00 63 1011.4
20260505112328 7 95 0.0 0.0 0.00 0.00 0.00 63 1011.4
20260505111846 7 83 0.0 0.0 0.00 0.00 0.00 63 1011.4
20260505111345 7 96 0.0 0.0 0.00 0.00 0.00 63 1011.4
20260505110822 7 95 0.0 0.0 0.00 0.00 0.00 63 1011.3
20260505110320 7 77 0.0 0.0 0.00 0.00 0.00 63 1011.2
20260505101855 7 100 0.0 0.0 0.00 0.00 0.00 65 1011.1
20260505101316 8 81 0.0 0.0 0.00 0.00 0.00 66 1011.1
20260505100817 8 88 0.0 0.0 0.00 0.00 0.00 67 1011.0
20260505100317 8 92 0.0 0.0 0.00 0.00 0.00 67 1011.1
20260505095838 8 93 0.0 0.0 0.00 0.00 0.00 68 1011.0
20260505095317 8 100 0.0 0.0 0.00 0.00 0.00 69 1011.0
20260505094818 8 100 0.0 0.0 0.00 0.00 0.00 68 1010.9
20260505094318 8 98 0.0 0.0 0.00 0.00 0.00 67 1010.9
20260505093819 8 93 0.0 0.0 0.00 0.00 0.00 67 1011.1
20260505093341 8 96 0.0 0.0 0.00 0.00 0.00 67 1010.9
20260505092822 8 87 0.0 0.0 0.00 0.00 0.00 66 1011.0
20260505092320 8 89 0.0 0.0 0.00 0.00 0.00 66 1011.0
20260505091837 8 91 0.0 0.0 0.00 0.00 0.00 66 1011.0
20260505091334 8 85 0.0 0.0 0.00 0.00 0.00 65 1011.0
20260505090832 8 85 0.0 0.0 0.00 0.00 0.00 65 1011.1
20260505090330 8 82 0.0 0.0 0.00 0.00 0.00 64 1011.1
20260505085848 9 85 0.0 0.0 0.00 0.00 0.00 63 1011.0
20260505085351 9 78 0.0 0.0 0.00 0.00 0.00 62 1011.0
20260505084828 9 77 0.0 0.0 0.00 0.00 0.00 61 1011.0
20260505084328 9 82 0.0 0.0 0.00 0.00 0.00 62 1011.0
20260505083848 9 84 0.0 0.0 0.00 0.00 0.00 62 1010.9
20260505083344 9 75 0.0 0.0 0.00 0.00 0.00 63 1011.0
20260505082822 9 71 0.0 0.0 0.00 0.00 0.00 63 1011.0
20260505082321 9 64 0.0 0.0 0.00 0.00 0.00 62 1010.9
20260505081822 9 63 0.0 0.0 0.00 0.00 0.00 63 1010.9
20260505081323 9 62 0.0 0.0 0.00 0.00 0.00 64 1010.9
20260505080824 9 62 0.0 0.0 0.00 0.00 0.00 64 1011.0
20260505080326 9 65 0.0 0.0 0.00 0.00 0.00 65 1011.0
20260505075825 9 60 0.0 0.0 0.00 0.00 0.00 66 1011.0
20260505075324 8 66 0.0 0.0 0.00 0.00 0.00 67 1011.0
20260505074842 8 73 0.0 0.0 0.00 0.00 0.00 68 1010.9
20260505074320 9 70 0.0 0.0 0.00 0.00 0.00 68 1010.9
20260505073821 9 56 0.0 0.0 0.00 0.00 0.00 67 1011.0
20260505073318 9 57 0.0 0.0 0.00 0.00 0.00 66 1010.9
20260505072815 9 52 0.0 0.0 0.00 0.00 0.00 66 1010.8
20260505072350 10 51 0.0 0.0 0.00 0.00 0.00 65 1010.9
20260505071816 10 79 0.0 0.0 0.00 0.00 0.00 65 1010.7
20260505071330 10 71 0.0 0.0 0.00 0.00 0.00 67 1010.7
20260505070829 10 73 0.0 0.0 0.00 0.00 0.00 65 1010.7
20260505070327 10 71 0.0 0.0 0.00 0.00 0.00 64 1010.7
20260505065829 10 79 0.0 0.0 0.00 0.00 0.00 64 1010.7
20260505065330 10 84 0.0 0.0 0.00 0.00 0.00 63 1010.5
20260505064828 10 83 0.0 0.0 0.00 0.00 0.00 64 1010.5
20260505064326 10 77 0.0 0.0 0.00 0.00 0.00 65 1010.4
20260505063831 10 74 0.0 0.0 0.00 0.00 0.00 63 1010.3
20260505063353 10 71 0.0 0.0 0.00 0.00 0.00 61 1010.3
20260505062829 10 56 0.0 0.0 0.00 0.00 0.00 62 1010.4
20260505062329 10 59 0.0 0.0 0.00 0.00 0.00 63 1010.5
20260505061828 10 32 0.0 0.0 0.00 0.00 0.00 64 1010.4
20260505061331 10 44 0.0 0.0 0.00 0.00 0.00 65 1010.4
20260505060832 10 26 0.0 0.0 0.00 0.00 0.00 65 1010.4
20260505060331 10 29 0.0 0.0 0.00 0.00 0.00 67 1010.4
20260505055830 10 28 0.0 0.0 0.00 0.00 0.00 68 1010.3
20260505055327 9 29 0.0 0.0 0.00 0.00 0.00 69 1010.3
20260505054827 9 29 0.0 0.0 0.00 0.00 0.00 70 1010.2
20260505054328 10 33 0.0 0.0 0.00 0.00 0.00 70 1010.3
20260505053825 10 21 0.0 0.0 0.00 0.00 0.00 68 1010.3
20260505053343 10 22 0.0 0.0 0.00 0.00 0.00 70 1010.4
20260505052820 10 30 0.0 0.0 0.00 0.00 0.00 70 1010.3
20260505052318 10 32 0.0 0.0 0.00 0.00 0.00 71 1010.3
20260505051819 10 17 0.0 0.0 0.00 0.00 0.00 70 1010.5
20260505051317 10 27 0.0 0.0 0.00 0.00 0.00 72 1010.4
20260505050817 10 27 0.0 0.0 0.00 0.00 0.00 71 1010.5
20260505050319 10 20 0.0 0.0 0.00 0.00 0.00 71 1010.5
20260505041326 11 314 0.0 1.6 0.00 0.00 0.00 65 1010.5
20260505040851 11 344 0.0 1.6 0.00 0.00 0.00 65 1010.4
20260505040328 11 342 0.0 1.6 0.00 0.00 0.00 66 1010.3
20260505035825 11 329 0.0 1.6 0.00 0.00 0.00 66 1010.4
20260505035343 11 350 0.0 0.0 0.00 0.00 0.00 66 1010.3
20260505034821 11 336 0.0 0.0 0.00 0.00 0.00 66 1010.3
20260505034320 11 336 0.0 0.0 0.00 0.00 0.00 66 1010.3
20260505033818 11 334 0.0 0.0 0.00 0.00 0.00 65 1010.3
20260505033316 11 337 0.0 1.6 0.00 0.00 0.00 65 1010.3
20260505032828 11 314 0.0 1.6 0.00 0.00 0.00 64 1010.3
20260505032346 11 336 0.0 0.0 0.00 0.00 0.00 64 1010.2
20260505031824 11 336 0.0 0.0 0.00 0.00 0.00 64 1010.1
20260505031351 11 350 0.0 0.0 0.00 0.00 0.00 65 1010.1
20260505030829 11 350 0.0 0.0 0.00 0.00 0.00 64 1010.1
20260505030354 11 323 0.0 0.0 0.00 0.00 0.00 64 1010.1
20260505025834 11 323 0.0 0.0 0.00 0.00 0.00 63 1010.1
20260505025332 11 323 0.0 0.0 0.00 0.00 0.00 63 1010.1
20260505024829 11 323 0.0 0.0 0.00 0.00 0.00 63 1010.1
20260505024330 12 323 0.0 0.0 0.00 0.00 0.00 62 1010.1
20260505023831 12 323 0.0 0.0 0.00 0.00 0.00 61 1010.1
20260505023329 12 323 0.0 0.0 0.00 0.00 0.00 61 1010.0
20260505022829 12 323 0.0 0.0 0.00 0.00 0.00 60 1010.1
20260505022327 12 323 0.0 0.0 0.00 0.00 0.00 60 1010.1
20260505021826 12 323 0.0 4.8 0.00 0.00 0.00 60 1010.0
20260505021331 12 141 1.6 4.8 0.00 0.00 0.00 60 1010.0
20260505020826 13 317 0.0 3.2 0.00 0.00 0.00 59 1010.0
20260505020324 13 340 0.0 4.8 0.00 0.00 0.00 58 1009.9
20260505015824 13 331 0.0 4.8 0.00 0.00 0.00 57 1010.0
20260505015325 13 331 0.0 1.6 0.00 0.00 0.00 56 1010.0
20260505014824 13 298 0.0 1.6 0.00 0.00 0.00 55 1009.9
20260505014325 13 305 0.0 4.8 0.00 0.00 0.00 55 1010.0
20260505013825 13 344 0.0 8.0 0.00 0.00 0.00 54 1010.1
20260505013342 13 192 1.6 8.0 0.00 0.00 0.00 54 1010.0
20260505012820 13 205 1.6 4.8 0.00 0.00 0.00 54 1010.1
20260505012339 13 318 0.0 1.6 0.00 0.00 0.00 53 1010.1
20260505011819 13 339 0.0 1.6 0.00 0.00 0.00 53 1010.0
20260505011341 13 305 0.0 1.6 0.00 0.00 0.00 52 1010.2
20260505010838 14 279 0.0 4.8 0.00 0.00 0.00 50 1010.1
20260505010334 14 279 0.0 6.4 0.00 0.00 0.00 50 1010.1
20260505005833 14 279 1.6 6.4 0.00 0.00 0.00 49 1010.2
20260505005331 14 226 0.0 4.8 0.00 0.00 0.00 48 1010.1
20260505004822 14 244 0.0 4.8 0.00 0.00 0.00 47 1010.2
20260505004322 14 15 1.6 14.5 0.00 0.00 0.00 46 1010.2
20260505003821 13 232 3.2 14.5 0.00 0.00 0.00 47 1010.2
20260505003320 13 316 0.0 3.2 0.00 0.00 0.00 46 1010.2
20260505002821 13 342 0.0 11.3 0.00 0.00 0.00 48 1010.3
20260505002320 13 350 3.2 11.3 0.00 0.00 0.00 49 1010.3
20260505001821 13 331 0.0 1.6 0.00 0.00 0.00 48 1010.2
20260505001321 13 355 0.0 1.6 0.00 0.00 0.00 48 1010.2
20260505000821 14 311 0.0 4.8 0.00 0.00 0.00 49 1010.2
20260505000320 13 245 1.6 4.8 0.00 0.00 0.00 51 1010.3
20260504235839 13 316 0.0 3.2 0.00 0.00 0.00 50 1010.3
20260504235316 13 11 0.0 1.6 0.00 0.00 0.00 50 1010.2
20260504234834 13 324 0.0 1.6 0.00 0.00 0.00 50 1010.3
20260504234332 13 350 0.0 1.6 0.00 0.00 0.00 49 1010.3
20260504233845 13 339 0.0 29.0 0.00 0.00 0.00 50 1010.2
20260504233323 13 319 19.3 29.0 0.00 0.00 0.00 50 1010.3
20260504232823 13 344 9.7 29.0 0.00 0.00 0.00 52 1010.3
20260504232341 13 6 17.7 29.0 0.00 0.00 0.00 53 1010.3
20260504231820 13 337 1.6 9.7 0.00 0.00 0.00 53 1010.4
20260504231317 13 8 0.0 1.6 0.00 0.00 0.00 50 1010.4
20260504230837 13 331 0.0 1.6 0.00 0.00 0.00 52 1010.4
20260504230315 13 322 0.0 3.2 0.00 0.00 0.00 51 1010.4
20260504225834 13 360 0.0 24.1 0.00 0.00 0.00 49 1010.3
20260504225330 13 360 16.1 24.1 0.00 0.00 0.00 50 1010.5
20260504224830 13 360 9.7 17.7 0.00 0.00 0.00 50 1010.5
20260504224331 13 338 0.0 4.8 0.00 0.00 0.00 51 1010.5
20260504223833 13 345 0.0 3.2 0.00 0.00 0.00 50 1010.4
20260504223331 13 323 0.0 3.2 0.00 0.00 0.00 51 1010.5
20260504222830 13 12 0.0 1.6 0.00 0.00 0.00 55 1010.4
20260504222329 13 6 0.0 3.2 0.00 0.00 0.00 58 1010.5
20260504221829 13 335 0.0 3.2 0.00 0.00 0.00 57 1010.6
20260504221326 15 345 0.0 1.6 0.00 0.00 0.00 54 1010.6
20260504220828 15 320 0.0 11.3 0.00 0.00 0.00 52 1010.7
20260504220326 14 312 4.8 11.3 0.00 0.00 0.00 53 1010.7
20260504215826 15 15 0.0 3.2 0.00 0.00 0.00 52 1010.8
20260504215325 15 350 0.0 6.4 0.00 0.00 0.00 54 1010.9
20260504214829 14 261 1.6 6.4 0.00 0.00 0.00 58 1010.9
20260504214331 14 339 0.0 12.9 0.00 0.00 0.00 59 1011.0
20260504213829 13 355 0.0 20.9 0.00 0.00 0.00 62 1011.0
20260504213328 13 350 3.2 19.3 0.00 0.00 0.00 59 1011.1
20260504212828 15 344 0.0 3.2 0.00 0.00 0.00 54 1011.1
20260504212326 15 314 0.0 3.2 0.00 0.00 0.00 57 1011.1
20260504211824 13 318 0.0 3.2 0.00 0.00 0.00 59 1011.1
20260504211324 13 329 0.0 1.6 0.00 0.00 0.00 61 1011.2
20260504210821 13 8 0.0 1.6 0.00 0.00 0.00 60 1011.2
20260504210323 13 345 0.0 1.6 0.00 0.00 0.00 58 1011.2
20260504205824 13 350 0.0 1.6 0.00 0.00 0.00 58 1011.2
20260504205327 13 333 0.0 0.0 0.00 0.00 0.00 58 1011.3
20260504204828 14 288 0.0 12.9 0.00 0.00 0.00 55 1011.3
20260504204346 14 247 4.8 12.9 0.00 0.00 0.00 56 1011.3
20260504203826 14 350 0.0 1.6 0.00 0.00 0.00 54 1011.3
20260504203348 15 58 0.0 16.1 0.00 0.00 0.00 45 1011.4
20260504202826 15 308 8.0 16.1 0.00 0.00 0.00 48 1011.5
20260504202347 14 328 0.0 1.6 0.00 0.00 0.00 50 1011.3
20260504201825 15 341 0.0 6.4 0.00 0.00 0.00 46 1011.3
20260504201322 15 343 4.8 12.9 0.00 0.00 0.00 45 1011.4
20260504200823 15 306 4.8 9.7 0.00 0.00 0.00 44 1011.4
20260504200321 15 285 0.0 6.4 0.00 0.00 0.00 45 1011.3
20260504195822 15 335 0.0 6.4 0.00 0.00 0.00 49 1011.3
20260504195320 15 271 1.6 9.7 0.00 0.00 0.00 48 1011.3
20260504194817 15 337 4.8 9.7 0.00 0.00 0.00 45 1011.3
20260504194317 15 314 4.8 6.4 0.00 0.00 0.00 47 1011.3
20260504193819 15 342 0.0 1.6 0.00 0.00 0.00 47 1011.4
20260504193320 15 311 0.0 1.6 0.00 0.00 0.00 46 1011.4
20260504192820 15 6 0.0 8.0 0.00 0.00 0.00 47 1011.3
20260504192321 15 337 0.0 8.0 0.00 0.00 0.00 48 1011.4
20260504191840 15 212 1.6 6.4 0.00 0.00 0.00 50 1011.4
20260504191338 14 285 3.2 6.4 0.00 0.00 0.00 49 1011.5
20260504190834 14 322 1.6 6.4 0.00 0.00 0.00 50 1011.6
20260504190333 14 339 0.0 11.3 0.00 0.00 0.00 51 1011.5
20260504185833 14 304 1.6 11.3 0.00 0.00 0.00 50 1011.6
20260504185334 14 283 0.0 6.4 0.00 0.00 0.00 49 1011.5
20260504184831 13 281 0.0 4.8 0.00 0.00 0.00 50 1011.6
20260504184330 14 5 0.0 6.4 0.00 0.00 0.00 50 1011.6
20260504183849 14 249 1.6 6.4 0.00 0.00 0.00 52 1011.6
20260504183322 14 314 0.0 11.3 0.00 0.00 0.00 53 1011.6
20260504182822 13 290 0.0 11.3 0.00 0.00 0.00 53 1011.6
20260504182322 13 291 1.6 8.0 0.00 0.00 0.00 54 1011.5
20260504181821 13 321 0.0 0.0 0.00 0.00 0.00 54 1011.5
20260504181320 12 350 0.0 1.6 0.00 0.00 0.00 53 1011.4
20260504180818 13 350 0.0 1.6 0.00 0.00 0.00 52 1011.5
20260504180317 13 355 0.0 1.6 0.00 0.00 0.00 51 1011.5
20260504175838 13 338 0.0 1.6 0.00 0.00 0.00 51 1011.5
20260504175319 13 339 0.0 1.6 0.00 0.00 0.00 51 1011.4
20260504174820 13 350 0.0 1.6 0.00 0.00 0.00 52 1011.5
20260504174318 13 320 0.0 1.6 0.00 0.00 0.00 53 1011.6
20260504173836 13 339 0.0 1.6 0.00 0.00 0.00 55 1011.5
20260504173333 13 355 0.0 1.6 0.00 0.00 0.00 54 1011.5
20260504172831 13 345 0.0 1.6 0.00 0.00 0.00 53 1011.5
20260504172333 13 285 0.0 1.6 0.00 0.00 0.00 49 1011.5
20260504171831 13 331 0.0 1.6 0.00 0.00 0.00 49 1011.6
20260504171332 13 344 0.0 1.6 0.00 0.00 0.00 49 1011.5
20260504170831 13 355 0.0 0.0 0.00 0.00 0.00 47 1011.6
20260504170329 13 350 0.0 1.6 0.00 0.00 0.00 49 1011.7
20260504160325 13 350 0.0 0.0 0.00 0.00 0.00 45 1011.7
20260504150828 12 8 0.0 0.0 0.00 0.00 0.00 43 1011.8
20260504150326 12 350 0.0 1.6 0.00 0.00 0.00 44 1011.8